Torna al catalogo

CZ-4 DEB

AttivoSSO
NORAD 35379·DEBRIS·🇨🇳 China

Lanciato Oct 21, 2003 da Taiyuan Satellite Launch Center

Loading…

Prossimi Passaggi (prossime 24 ore)

TLE

In scadenzaSource: Space-Track

Epoca: Sep 5, 2026, 11:37 UTC

1 35379U 03049F   26248.48465575  .00000249  00000-0  20344-3 0  9990
2 35379  98.7780  81.7723 0173877  27.6309   2.3855 13.91236145137241

Traccia CZ-4 DEB in tempo reale con AllMySat

Download on the App Store